Time,TemperatureF,DewpointF,PressureIn,WindDirection,WindDirectionDegrees,WindSpeedMPH,WindSpeedGustMPH,Humidity,HourlyPrecipIn,Conditions,Clouds,dailyrainin,SoftwareType,DateUTC
2013-11-22 00:23:00,37.0,-99.9,30.12,SW,218,2.0,2.0,-999,-99.99,,,-99.99,,2013-11-22 05:23:00,
2013-11-22 02:22:00,37.0,-99.9,30.10,SSW,207,2.0,2.0,-999,-99.99,,,-99.99,,2013-11-22 07:22:00,
2013-11-22 03:42:00,38.0,-99.9,30.11,West,275,7.0,9.0,-999,-99.99,,,-99.99,,2013-11-22 08:42:00,
2013-11-22 03:52:00,38.0,-99.9,30.11,West,279,5.0,8.0,-999,-99.99,,,-99.99,,2013-11-22 08:52:00,
2013-11-22 07:42:00,-999.0,-99.9,30.15,North,5,13.0,20.0,-999,-99.99,,,-99.99,,2013-11-22 12:42:00,
2013-11-22 08:02:00,-999.0,-99.9,30.16,NNW,344,22.0,24.0,-999,-99.99,,,-99.99,,2013-11-22 13:02:00,
2013-11-22 08:12:00,-999.0,-99.9,30.17,North,4,15.0,20.0,-999,-99.99,,,-99.99,,2013-11-22 13:12:00,
2013-11-22 08:32:00,-999.0,-99.9,30.18,North,357,18.0,25.0,-999,-99.99,,,-99.99,,2013-11-22 13:32:00,
2013-11-22 08:42:00,-999.0,-99.9,30.18,North,3,17.0,21.0,-999,-99.99,,,-99.99,,2013-11-22 13:42:00,
2013-11-22 09:02:00,-999.0,-99.9,30.19,North,5,13.0,16.0,-999,-99.99,,,-99.99,,2013-11-22 14:02:00,
2013-11-22 09:12:00,-999.0,-99.9,30.19,North,9,11.0,13.0,-999,-99.99,,,-99.99,,2013-11-22 14:12:00,
2013-11-22 09:22:00,28.0,-99.9,30.19,North,350,12.0,17.0,-999,-99.99,,,-99.99,,2013-11-22 14:22:00,
2013-11-22 09:32:00,-999.0,-99.9,30.19,North,-999,14.0,18.0,-999,-99.99,,,-99.99,,2013-11-22 14:32:00,
2013-11-22 09:42:00,-999.0,-99.9,30.20,North,356,13.0,19.0,-999,-99.99,,,-99.99,,2013-11-22 14:42:00,
2013-11-22 10:02:00,-999.0,-99.9,30.21,North,2,16.0,21.0,-999,-99.99,,,-99.99,,2013-11-22 15:02:00,
2013-11-22 10:12:00,-999.0,-99.9,30.21,North,1,13.0,22.0,-999,-99.99,,,-99.99,,2013-11-22 15:12:00,
2013-11-22 10:22:00,27.0,-99.9,30.21,North,6,12.0,14.0,-999,-99.99,,,-99.99,,2013-11-22 15:22:00,
2013-11-22 10:34:00,-999.0,-99.9,30.22,NNW,347,9.0,12.0,-999,-99.99,,,-99.99,,2013-11-22 15:34:00,
2013-11-22 10:44:00,-999.0,-99.9,30.22,NNW,337,9.0,12.0,-999,-99.99,,,-99.99,,2013-11-22 15:44:00,
2013-11-22 11:03:00,-999.0,-99.9,30.22,NNW,335,11.0,14.0,-999,-99.99,,,-99.99,,2013-11-22 16:03:00,
2013-11-22 11:13:00,-999.0,-99.9,30.23,North,357,13.0,17.0,-999,-99.99,,,-99.99,,2013-11-22 16:13:00,
2013-11-22 11:33:00,-999.0,-99.9,30.24,NW,326,13.0,17.0,-999,-99.99,,,-99.99,,2013-11-22 16:33:00,
2013-11-22 11:44:00,-999.0,-99.9,30.24,NNW,328,13.0,16.0,-999,-99.99,,,-99.99,,2013-11-22 16:44:00,
2013-11-22 12:03:00,-999.0,-99.9,30.23,NNW,328,12.0,16.0,-999,-99.99,,,-99.99,,2013-11-22 17:03:00,
2013-11-22 12:12:00,-999.0,-99.9,30.23,NNW,327,13.0,17.0,-999,-99.99,,,-99.99,,2013-11-22 17:12:00,
2013-11-22 12:34:00,-999.0,-99.9,30.23,NW,323,14.0,17.0,-999,-99.99,,,-99.99,,2013-11-22 17:34:00,
2013-11-22 12:42:00,-999.0,-99.9,30.23,NW,322,15.0,21.0,-999,-99.99,,,-99.99,,2013-11-22 17:42:00,
2013-11-22 13:02:00,-999.0,-99.9,30.24,NNW,338,14.0,20.0,-999,-99.99,,,-99.99,,2013-11-22 18:02:00,
2013-11-22 13:12:00,-999.0,-99.9,30.24,NNW,335,14.0,17.0,-999,-99.99,,,-99.99,,2013-11-22 18:12:00,
2013-11-22 13:33:00,-999.0,-99.9,30.24,NNW,336,15.0,18.0,-999,-99.99,,,-99.99,,2013-11-22 18:33:00,
2013-11-22 13:42:00,-999.0,-99.9,30.24,NNW,332,15.0,21.0,-999,-99.99,,,-99.99,,2013-11-22 18:42:00,
2013-11-22 14:01:00,-999.0,-99.9,30.24,NNW,333,13.0,16.0,-999,-99.99,,,-99.99,,2013-11-22 19:01:00,
2013-11-22 14:11:00,-999.0,-99.9,30.24,NNW,337,12.0,15.0,-999,-99.99,,,-99.99,,2013-11-22 19:11:00,
2013-11-22 14:32:00,-999.0,-99.9,30.23,NNW,347,10.0,14.0,-999,-99.99,,,-99.99,,2013-11-22 19:32:00,
2013-11-22 14:42:00,-999.0,-99.9,30.24,NNW,333,7.0,14.0,-999,-99.99,,,-99.99,,2013-11-22 19:42:00,
2013-11-22 15:02:00,-999.0,-99.9,30.24,NW,309,7.0,11.0,-999,-99.99,,,-99.99,,2013-11-22 20:02:00,
2013-11-22 15:11:00,-999.0,-99.9,30.24,NW,312,9.0,14.0,-999,-99.99,,,-99.99,,2013-11-22 20:11:00,
2013-11-22 15:22:00,27.0,-99.9,30.24,NW,314,6.0,11.0,-999,-99.99,,,-99.99,,2013-11-22 20:22:00,
2013-11-22 15:32:00,-999.0,-99.9,30.24,NNW,335,7.0,10.0,-999,-99.99,,,-99.99,,2013-11-22 20:32:00,
2013-11-22 15:42:00,-999.0,-99.9,30.24,NW,313,10.0,14.0,-999,-99.99,,,-99.99,,2013-11-22 20:42:00,
2013-11-22 15:52:00,-999.0,-99.9,30.25,NW,318,12.0,16.0,-999,-99.99,,,-99.99,,2013-11-22 20:52:00,
2013-11-22 16:02:00,-999.0,-99.9,30.25,NW,318,12.0,16.0,-999,-99.99,,,-99.99,,2013-11-22 21:02:00,
2013-11-22 16:11:00,-999.0,-99.9,30.25,NW,316,11.0,17.0,-999,-99.99,,,-99.99,,2013-11-22 21:11:00,
2013-11-22 16:33:00,-999.0,-99.9,30.26,NW,312,10.0,16.0,-999,-99.99,,,-99.99,,2013-11-22 21:33:00,
2013-11-22 16:53:00,-999.0,-99.9,30.26,NNW,345,14.0,19.0,-999,-99.99,,,-99.99,,2013-11-22 21:53:00,
2013-11-22 17:03:00,-999.0,-99.9,30.26,NNW,347,11.0,17.0,-999,-99.99,,,-99.99,,2013-11-22 22:03:00,
2013-11-22 17:13:00,-999.0,-99.9,30.26,NNW,332,10.0,14.0,-999,-99.99,,,-99.99,,2013-11-22 22:13:00,
2013-11-22 17:33:00,-999.0,-99.9,30.25,NW,318,12.0,18.0,-999,-99.99,,,-99.99,,2013-11-22 22:33:00,
2013-11-22 17:42:00,-999.0,-99.9,30.25,NNW,345,12.0,15.0,-999,-99.99,,,-99.99,,2013-11-22 22:42:00,
2013-11-22 18:02:00,-999.0,-99.9,30.25,NNW,338,10.0,15.0,-999,-99.99,,,-99.99,,2013-11-22 23:02:00,
2013-11-22 18:12:00,-999.0,-99.9,30.25,NNW,339,11.0,17.0,-999,-99.99,,,-99.99,,2013-11-22 23:12:00,
2013-11-22 18:33:00,-999.0,-99.9,30.24,NNW,337,8.0,13.0,-999,-99.99,,,-99.99,,2013-11-22 23:33:00,
2013-11-22 18:42:00,-999.0,-99.9,30.25,NNW,341,10.0,12.0,-999,-99.99,,,-99.99,,2013-11-22 23:42:00,
2013-11-22 19:02:00,-999.0,-99.9,30.25,NNW,333,8.0,12.0,-999,-99.99,,,-99.99,,2013-11-23 00:02:00,
2013-11-22 19:12:00,-999.0,-99.9,30.25,WNW,286,7.0,11.0,-999,-99.99,,,-99.99,,2013-11-23 00:12:00,
2013-11-22 19:22:00,28.0,-99.9,30.25,West,266,6.0,9.0,-999,-99.99,,,-99.99,,2013-11-23 00:22:00,
2013-11-22 19:32:00,-999.0,-99.9,30.25,WNW,287,8.0,10.0,-999,-99.99,,,-99.99,,2013-11-23 00:32:00,
2013-11-22 19:42:00,-999.0,-99.9,30.25,NW,305,10.0,14.0,-999,-99.99,,,-99.99,,2013-11-23 00:42:00,
2013-11-22 20:02:00,-999.0,-99.9,30.24,WNW,291,7.0,11.0,-999,-99.99,,,-99.99,,2013-11-23 01:02:00,
2013-11-22 20:11:00,-999.0,-99.9,30.24,West,279,3.0,7.0,-999,-99.99,,,-99.99,,2013-11-23 01:11:00,
2013-11-22 20:22:00,-999.0,-99.9,30.23,WNW,295,4.0,8.0,-999,-99.99,,,-99.99,,2013-11-23 01:22:00,
2013-11-22 20:32:00,-999.0,-99.9,30.23,SW,222,5.0,8.0,-999,-99.99,,,-99.99,,2013-11-23 01:32:00,
2013-11-22 20:42:00,-999.0,-99.9,30.24,SW,231,9.0,10.0,-999,-99.99,,,-99.99,,2013-11-23 01:42:00,
2013-11-22 21:02:00,-999.0,-99.9,30.24,WSW,249,10.0,15.0,-999,-99.99,,,-99.99,,2013-11-23 02:02:00,
2013-11-22 21:11:00,-999.0,-99.9,30.24,WSW,241,7.0,14.0,-999,-99.99,,,-99.99,,2013-11-23 02:11:00,
2013-11-22 21:32:00,-999.0,-99.9,30.22,SSW,211,7.0,10.0,-999,-99.99,,,-99.99,,2013-11-23 02:32:00,
2013-11-22 21:42:00,-999.0,-99.9,30.22,SSW,201,6.0,9.0,-999,-99.99,,,-99.99,,2013-11-23 02:42:00,
2013-11-22 22:02:00,-999.0,-99.9,30.21,SSW,203,6.0,9.0,-999,-99.99,,,-99.99,,2013-11-23 03:02:00,
2013-11-22 22:12:00,-999.0,-99.9,30.20,SSW,201,6.0,8.0,-999,-99.99,,,-99.99,,2013-11-23 03:12:00,
2013-11-22 22:33:00,-999.0,-99.9,30.19,South,180,8.0,10.0,-999,-99.99,,,-99.99,,2013-11-23 03:33:00,
2013-11-22 22:44:00,-999.0,-99.9,30.17,South,183,6.0,8.0,-999,-99.99,,,-99.99,,2013-11-23 03:44:00,
2013-11-22 23:03:00,-999.0,-99.9,30.16,South,177,5.0,9.0,-999,-99.99,,,-99.99,,2013-11-23 04:03:00,
2013-11-22 23:13:00,-999.0,-99.9,30.16,South,171,6.0,8.0,-999,-99.99,,,-99.99,,2013-11-23 04:13:00,
2013-11-22 23:33:00,-999.0,-99.9,30.15,South,185,6.0,10.0,-999,-99.99,,,-99.99,,2013-11-23 04:33:00,
2013-11-22 23:43:00,-999.0,-99.9,30.14,South,184,5.0,9.0,-999,-99.99,,,-99.99,,2013-11-23 04:43:00,